[[{"header":{"parameterUnit":"m.s-1","parameterCategory":1,"la1":30.2991,"la2":30.254,"lo1":-89.0895,"lo2":-89.0444,"dy":0.0017,"dx":0.0017,"nx":28,"ny":28,"refTime":"2025-11-14T03:00:00:Z","depth":0,"parameterNumber":2,"parameterNumberName":"U-component_of_WINDS"},"data":[0,0,0,0,0,0,0,0,0,0,0,0,0,0,0,0,0,0,0,0,0,0,0,0,0,0,0,0,0,0,0,0,0,0,0,0,0,0,0,0,0,0,0,0,0,0,0,0,0,0,0,0,0,0,0,0,0,0,1.506,1.506,0,1.5133,1.5134,1.5134,1.5128,1.5126,1.5125,1.5124,1.5196,1.5199,1.5202,0,0,0,0,0,0,0,0,0,0,0,0,0,1.4909,1.4912,1.506,1.5061,1.5061,1.5133,1.5134,1.5135,1.5128,1.5126,1.5125,1.5124,1.5195,1.5198,1.5202,0,0,0,0,0,0,0,0,0,0,0,0,0,1.4978,1.4913,1.5059,1.5067,1.5068,1.5133,1.5134,1.5135,1.5128,1.5126,1.5125,1.5123,1.5194,1.5198,1.5202,1.5263,0,0,1.5216,1.5218,0,0,0,0,0,0,0,0,1.4974,1.4983,1.5065,1.5066,1.5068,1.5119,1.5107,1.5178,1.5128,1.5105,1.5124,1.5122,1.5172,1.5178,1.5195,1.5267,1.527,1.5216,1.5219,1.5221,1.5222,0,0,0,0,0,0,0,1.4969,1.498,1.5088,1.5066,1.5068,1.5065,1.5073,1.512,1.5147,1.5107,1.5107,1.5116,1.5172,1.5191,1.5197,1.5271,1.5216,1.522,1.5223,1.5225,1.5394,1.5396,0,0,0,0,0,0,1.4963,1.4976,1.5086,1.5091,1.5016,1.5069,1.5078,1.5104,1.5146,1.5151,1.5117,1.5115,1.5184,1.5191,1.5199,1.5272,1.5221,1.5225,1.5228,1.5392,1.5395,1.5397,0,0,0,0,0,0,1.496,1.4973,1.5083,1.5033,1.5047,1.5073,1.5103,1.5107,1.5126,1.5154,1.5158,1.5132,1.5183,1.5193,1.5247,1.5274,1.5227,1.5231,1.539,1.5393,1.5396,1.5419,0,0,0,0,0,0,1.4956,1.4972,1.4997,1.5034,1.505,1.5131,1.5105,1.5109,1.5134,1.5132,1.5169,1.5173,1.5182,1.5241,1.5252,1.528,1.5234,1.5388,1.5391,1.5395,1.5416,1.5422,1.5427,0,0,0,0,0,1.495,1.5,1.4998,1.5011,1.5081,1.5133,1.5142,1.5153,1.5136,1.516,1.5178,1.5172,1.527,1.5246,1.5259,1.5288,1.5386,1.539,1.5394,1.5413,1.5421,1.5427,0,0,0,0,0,0,1.4964,1.5005,1.5003,1.5067,1.5096,1.5132,1.5163,1.5161,1.5195,1.5192,1.5203,1.5211,1.5265,1.5282,1.5256,1.5348,1.5325,1.5332,1.5335,1.5343,1.5349,1.5343,1.5238,0,0,0,0,0,1.4974,1.5014,1.5048,1.51,1.5115,1.5136,1.5159,1.5165,1.5196,1.5208,1.523,1.526,1.5297,1.5321,1.5357,1.5418,1.5425,1.5445,1.545,1.5455,1.546,1.5492,1.5501,1.541,1.541,1.541,0,0,1.4996,1.5024,1.5048,1.5103,1.5127,1.5167,1.5147,1.519,1.5219,1.5214,1.5267,1.5284,1.5317,1.5375,1.5402,1.5391,1.5487,1.546,1.5464,1.5467,1.5497,1.5506,1.5514,1.5413,1.5413,1.5412,0,0,1.5056,1.5081,1.5127,1.5152,1.5188,1.5202,1.5213,1.5249,1.526,1.5313,1.531,1.5344,1.5408,1.5432,1.5452,1.5519,1.5514,1.5531,1.5561,1.5592,1.5599,1.5605,1.5627,1.5636,1.5536,1.5536,1.5536,0,1.5078,1.5139,1.5151,1.5194,1.5218,1.5216,1.5262,1.5284,1.533,1.5346,1.5334,1.5413,1.5436,1.5498,1.5514,1.5532,1.5543,1.5526,1.5597,1.5603,1.561,1.5631,1.564,1.5538,1.5538,1.5537,1.5537,0,1.5163,1.5205,1.5237,1.5283,1.531,1.5354,1.5371,1.5397,1.54,1.5415,1.5468,1.5495,1.5535,1.5551,1.5554,1.5613,1.5605,1.5595,1.5572,1.562,1.564,1.5648,1.554,1.5539,1.5539,1.5539,0,0,1.5233,1.5284,1.5296,1.5315,1.5356,1.5387,1.5431,1.5471,1.5493,1.5524,1.5559,1.5614,1.5604,1.5627,1.5633,1.566,1.571,1.5646,1.5647,1.5656,1.5774,1.5781,1.579,1.5707,1.5709,1.571,1.5771,0,1.5295,1.5373,1.5385,1.5453,1.5491,1.549,1.5527,1.5555,1.5569,1.5602,1.5617,1.5655,1.5641,1.5654,1.5681,1.5698,1.5733,1.5694,1.5738,1.574,1.5729,1.5801,1.5808,1.5864,1.5779,1.578,1.5781,0,1.5378,1.5413,1.5485,1.5519,1.5535,1.5569,1.5606,1.5638,1.5669,1.5677,1.5703,1.5705,1.5748,1.5724,1.5782,1.5755,1.5773,1.5784,1.5787,1.579,1.5763,1.5805,1.5883,1.5891,1.5794,1.5793,1.5792,0,1.542,1.5484,1.5536,1.5553,1.5594,1.5617,1.5635,1.5665,1.5688,1.572,1.5735,1.5771,1.5791,1.5818,1.583,1.5811,1.5887,1.5864,1.5893,1.5893,1.5908,1.5907,1.5988,1.5923,1.5922,1.5922,1.5922,0,1.5488,1.5531,1.5555,1.5586,1.5634,1.5647,1.5694,1.571,1.5736,1.5769,1.5771,1.5802,1.5815,1.5848,1.5857,1.5902,1.5912,1.5918,1.592,1.5918,1.5916,1.5929,1.5925,1.5924,1.5924,1.5924,1.5923,0,1.5542,1.556,1.5615,1.565,1.5659,1.5693,1.5722,1.5751,1.5765,1.5807,1.5817,1.5839,1.5877,1.5891,1.5938,1.5944,1.5996,1.5995,1.5986,1.5986,1.6014,1.601,1.6106,1.6118,1.6045,1.6046,1.6046,0,1.5583,1.5617,1.5655,1.5678,1.5697,1.5734,1.5758,1.5771,1.5795,1.5832,1.5856,1.5895,1.5926,1.5987,1.6005,1.604,1.6039,1.607,1.6044,1.604,1.6038,1.6035,1.6038,1.6075,1.6075,1.6076,1.6076,0,1.5654,1.5661,1.5696,1.5734,1.5763,1.5793,1.5822,1.584,1.5857,1.5884,1.5924,1.5948,1.5996,1.6033,1.6069,1.6085,1.6083,1.6085,1.6093,1.609,1.6083,1.6085,1.5997,1.6082,1.6081,1.6081,1.6081,1.6081,1.5702,1.5731,1.5763,1.5801,1.5825,1.5852,1.5881,1.5899,1.5932,1.5973,1.5978,1.602,1.6048,1.6096,1.6114,1.6146,1.6137,1.615,1.6153,1.6155,1.6156,1.6079,1.6153,1.6153,1.6152,1.6152,1.6152,0,1.5771,1.5791,1.5827,1.5868,1.5898,1.5895,1.5927,1.5951,1.5989,1.6016,1.6047,1.6091,1.6127,1.6149,1.6184,1.6206,1.6205,1.6214,1.6212,1.6215,1.6163,1.6151,1.6214,1.6214,1.6214,1.6214,1.6214,1.6214,1.5811,1.586,1.587,1.593,1.595,1.5992,1.601,1.6034,1.6056,1.6106,1.6136,1.6151,1.6175,1.6212,1.6244,1.625,1.6262,1.6272,1.6276,1.6226,1.6219,1.6213,1.6203,1.6275,1.6275,1.6325,1.6326,1.6326]},{"header":{"parameterUnit":"m.s-1","parameterCategory":1,"la1":30.2991,"la2":30.254,"lo1":-89.0895,"lo2":-89.0444,"dy":0.0017,"dx":0.0017,"nx":28,"ny":28,"refTime":"2025-11-14T03:00:00:Z","depth":0,"parameterNumber":3,"parameterNumberName":"V-component_of_WINDS"},"data":[0,0,0,0,0,0,0,0,0,0,0,0,0,0,0,0,0,0,0,0,0,0,0,0,0,0,0,0,0,0,0,0,0,0,0,0,0,0,0,0,0,0,0,0,0,0,0,0,0,0,0,0,0,0,0,0,0,0,3.685,3.685,0,3.6827,3.6827,3.6827,3.6747,3.6745,3.6743,3.6741,3.672,3.6721,3.6722,0,0,0,0,0,0,0,0,0,0,0,0,0,3.6827,3.6827,3.685,3.685,3.685,3.6827,3.6827,3.6827,3.6747,3.6745,3.6742,3.674,3.672,3.6721,3.6722,0,0,0,0,0,0,0,0,0,0,0,0,0,3.6824,3.6828,3.685,3.6807,3.6803,3.6827,3.6827,3.6827,3.6747,3.6745,3.6742,3.6739,3.6719,3.6721,3.6722,3.6787,0,0,3.6728,3.6728,0,0,0,0,0,0,0,0,3.6824,3.6825,3.6814,3.681,3.6806,3.6787,3.6811,3.6814,3.6748,3.6769,3.6741,3.6738,3.6745,3.6744,3.6746,3.6786,3.6786,3.6728,3.6729,3.673,3.673,0,0,0,0,0,0,0,3.6824,3.6825,3.6841,3.6814,3.6809,3.6789,3.6786,3.6811,3.6772,3.6767,3.6761,3.6759,3.6742,3.6744,3.6745,3.6785,3.6728,3.6729,3.673,3.6731,3.6878,3.6881,0,0,0,0,0,0,3.683,3.6826,3.6842,3.684,3.6808,3.6792,3.6788,3.6796,3.6772,3.6765,3.6761,3.6755,3.6743,3.6743,3.6744,3.6818,3.673,3.6731,3.6732,3.6875,3.6879,3.6882,0,0,0,0,0,0,3.683,3.6833,3.6843,3.6832,3.6831,3.6795,3.6804,3.6797,3.6799,3.6768,3.6761,3.6771,3.6741,3.6741,3.6777,3.6816,3.6732,3.6733,3.6872,3.6876,3.688,3.6968,0,0,0,0,0,0,3.683,3.6833,3.6857,3.6833,3.6832,3.6876,3.6807,3.6798,3.6802,3.6794,3.6775,3.6769,3.6739,3.6775,3.6779,3.6817,3.6735,3.6868,3.6874,3.6879,3.6961,3.6974,3.6986,0,0,0,0,0,3.6829,3.6883,3.6859,3.6861,3.6861,3.6879,3.6879,3.6842,3.6805,3.6829,3.6809,3.677,3.6811,3.6779,3.6783,3.6822,3.6865,3.6872,3.6878,3.6955,3.6972,3.6985,0,0,0,0,0,0,3.6914,3.6879,3.6852,3.6899,3.6892,3.6865,3.6894,3.686,3.6864,3.6857,3.6811,3.6808,3.685,3.684,3.6805,3.6884,3.6832,3.6839,3.6889,3.6904,3.6916,3.6918,3.6736,0,0,0,0,0,3.6938,3.6954,3.6923,3.6968,3.6966,3.6931,3.6937,3.6909,3.6901,3.6898,3.688,3.6874,3.6886,3.6894,3.6903,3.6959,3.6954,3.6988,3.7,3.7011,3.7018,3.7046,3.7061,3.6903,3.6903,3.6903,0,0,3.6988,3.6971,3.6984,3.6984,3.6976,3.6994,3.6929,3.6951,3.6965,3.6901,3.6934,3.6921,3.6911,3.6957,3.6976,3.695,3.706,3.7019,3.7027,3.7029,3.7055,3.707,3.7083,3.6908,3.6907,3.6906,0,0,3.7088,3.7077,3.7113,3.7106,3.7093,3.7069,3.7078,3.7056,3.7045,3.7076,3.7029,3.7045,3.7066,3.7061,3.7061,3.7159,3.7123,3.7163,3.7228,3.7257,3.7269,3.728,3.7315,3.7328,3.7171,3.7171,3.7171,0,3.7152,3.7177,3.7136,3.7161,3.7163,3.7105,3.7142,3.7137,3.7129,3.7131,3.7101,3.7126,3.7115,3.7159,3.7183,3.7185,3.7194,3.7165,3.727,3.7281,3.729,3.7323,3.7337,3.7176,3.7175,3.7175,3.7174,0,3.7257,3.7275,3.7305,3.7298,3.7303,3.7334,3.7297,3.7308,3.7279,3.7259,3.7292,3.7277,3.7282,3.7291,3.7264,3.7331,3.7315,3.7278,3.7225,3.7311,3.7341,3.7354,3.7183,3.7181,3.718,3.7178,0,0,3.741,3.7379,3.7391,3.7386,3.7368,3.7382,3.741,3.7414,3.7424,3.742,3.7443,3.7462,3.7428,3.7428,3.74,3.7425,3.7504,3.7385,3.7384,3.7408,3.7577,3.7605,3.762,3.748,3.7482,3.7484,3.7578,0,3.7506,3.7551,3.7515,3.7567,3.7583,3.7529,3.7553,3.7546,3.7527,3.7539,3.7519,3.7533,3.7487,3.7487,3.7509,3.749,3.7537,3.7482,3.7501,3.7502,3.7505,3.7636,3.7665,3.7755,3.759,3.7592,3.7593,0,3.7623,3.7624,3.7678,3.7656,3.7661,3.7684,3.7684,3.7696,3.7686,3.7671,3.7671,3.7636,3.7663,3.7611,3.7647,3.761,3.7616,3.7607,3.761,3.761,3.7553,3.764,3.7783,3.7796,3.7611,3.761,3.7608,0,3.773,3.7744,3.7778,3.7776,3.7751,3.7768,3.7759,3.7746,3.7751,3.7751,3.7754,3.7758,3.7761,3.7765,3.7733,3.7698,3.7773,3.7718,3.7762,3.7763,3.7781,3.778,3.7927,3.7785,3.7784,3.7784,3.7784,0,3.7841,3.7876,3.7825,3.7847,3.7884,3.7842,3.7881,3.7866,3.7855,3.7872,3.7826,3.7844,3.7799,3.7812,3.7787,3.7821,3.7823,3.7812,3.7805,3.7816,3.7818,3.7819,3.7812,3.7788,3.7787,3.7786,3.7786,0,3.7966,3.7934,3.7967,3.7941,3.7935,3.7964,3.7941,3.796,3.7938,3.7961,3.7964,3.7931,3.7944,3.7912,3.792,3.7903,3.7952,3.7935,3.7956,3.795,3.7996,3.7992,3.8149,3.8167,3.8013,3.8015,3.8016,0,3.8039,3.8065,3.804,3.8048,3.8041,3.8055,3.8058,3.8018,3.8024,3.8015,3.8035,3.8044,3.8049,3.8072,3.8049,3.8056,3.8039,3.8093,3.8039,3.805,3.804,3.8039,3.8041,3.8104,3.8106,3.8108,3.8109,0,3.8172,3.8154,3.8161,3.8163,3.8169,3.8169,3.8165,3.8174,3.8131,3.8141,3.8153,3.8157,3.8165,3.8175,3.8176,3.8167,3.8132,3.8126,3.8136,3.8148,3.8159,3.8154,3.7986,3.8123,3.8121,3.812,3.8119,3.8119,3.8273,3.8293,3.8279,3.8288,3.8281,3.8279,3.8295,3.8275,3.8284,3.8287,3.8262,3.828,3.8269,3.8267,3.8262,3.8275,3.8251,3.8266,3.827,3.8274,3.8282,3.8157,3.8276,3.8275,3.8275,3.8274,3.8274,0,3.8403,3.8391,3.84,3.8396,3.8404,3.8368,3.8362,3.8371,3.8387,3.8379,3.8385,3.8399,3.8408,3.8386,3.8392,3.8407,3.8391,3.841,3.8409,3.8407,3.8304,3.8294,3.8423,3.8423,3.8423,3.8423,3.8423,3.8423,3.8472,3.8504,3.8485,3.8513,3.85,3.8516,3.8516,3.8514,3.8507,3.8525,3.8532,3.8517,3.8503,3.8508,3.8515,3.8508,3.8513,3.8538,3.8526,3.8429,3.8415,3.8401,3.8391,3.8539,3.8539,3.8628,3.8629,3.8629]}]]